• En España
  • Lista de países
  • Para 7 días
  • Temperatura del agua
  • Mapa Satelital
  • El tiempo en el mapa
  • Informadores
  • user-avatar
    Iniciar sesión

    Tiempo cada hora Tehran

    Hoy, 19 Septiembre, Miércoles

    Tiempo Temperatura Precipitaciones Viento Presión Humedad
    00:00 +27°C° 0.2 mm 2 mps 667 mmHg 36%
    01:00 +27°C° 0.2 mm 2 mps 667 mmHg 37%
    02:00 +27°C° 0.2 mm 2 mps 667 mmHg 37%
    03:00 +26°C° 0 mm 2 mps 667 mmHg 36%
    04:00 +26°C° 0.1 mm 2 mps 667 mmHg 36%
    05:00 +26°C° 0.1 mm 2 mps 667 mmHg 37%
    06:00 +26°C° 0.1 mm 1 mps 667 mmHg 38%
    07:00 +27°C° 0 mm 2 mps 667 mmHg 34%
    08:00 +28°C° 0 mm 2 mps 667 mmHg 30%
    09:00 +30°C° 0 mm 2 mps 668 mmHg 26%
    10:00 +30°C° 0 mm 2 mps 668 mmHg 24%
    11:00 +31°C° 0 mm 2 mps 668 mmHg 23%
    12:00 +33°C° 0 mm 3 mps 668 mmHg 21%
    13:00 +33°C° 0.1 mm 3 mps 668 mmHg 21%
    14:00 +34°C° 0.1 mm 3 mps 668 mmHg 21%
    15:00 +34°C° 0.1 mm 3 mps 667 mmHg 22%
    16:00 +33°C° 0.2 mm 3 mps 667 mmHg 25%
    17:00 +31°C° 0.2 mm 3 mps 667 mmHg 28%
    18:00 +31°C° 0.2 mm 3 mps 667 mmHg 31%
    19:00 +30°C° 0.7 mm 3 mps 667 mmHg 33%
    20:00 +29°C° 0.7 mm 3 mps 667 mmHg 35%
    21:00 +29°C° 0.7 mm 2 mps 667 mmHg 37%
    22:00 +28°C° 0.3 mm 2 mps 667 mmHg 39%
    23:00 +27°C° 0.3 mm 2 mps 667 mmHg 41%

    Mañana, 20 Septiembre, Jueves

    Tiempo Temperatura Precipitaciones Viento Presión Humedad
    00:00 +27°C° 0.3 mm 2 mps 667 mmHg 44%
    01:00 +26°C° 0.7 mm 2 mps 667 mmHg 46%
    02:00 +25°C° 0.7 mm 2 mps 667 mmHg 48%
    03:00 +25°C° 0.7 mm 2 mps 667 mmHg 51%
    04:00 +25°C° 0.4 mm 2 mps 667 mmHg 51%
    05:00 +25°C° 0.4 mm 2 mps 667 mmHg 51%
    06:00 +24°C° 0.4 mm 2 mps 667 mmHg 52%
    07:00 +25°C° 0 mm 2 mps 668 mmHg 48%
    08:00 +26°C° 0 mm 2 mps 668 mmHg 45%
    09:00 +27°C° 0 mm 2 mps 669 mmHg 42%
    10:00 +28°C° 0.2 mm 2 mps 669 mmHg 40%
    11:00 +28°C° 0.2 mm 2 mps 669 mmHg 38%
    12:00 +29°C° 0.2 mm 2 mps 669 mmHg 35%
    13:00 +29°C° 0.2 mm 2 mps 668 mmHg 35%
    14:00 +30°C° 0.2 mm 2 mps 668 mmHg 34%
    15:00 +30°C° 0.2 mm 2 mps 668 mmHg 33%
    16:00 +29°C° 0.2 mm 2 mps 668 mmHg 35%
    17:00 +29°C° 0.2 mm 2 mps 668 mmHg 37%
    18:00 +28°C° 0.2 mm 2 mps 667 mmHg 39%
    19:00 +27°C° 0.6 mm 2 mps 668 mmHg 42%
    20:00 +27°C° 0.6 mm 3 mps 668 mmHg 44%
    21:00 +26°C° 0.6 mm 3 mps 668 mmHg 47%
    22:00 +25°C° 0.5 mm 3 mps 668 mmHg 48%
    23:00 +25°C° 0.5 mm 3 mps 668 mmHg 50%

    Pasado mañana, 21 Septiembre, Viernes

    Tiempo Temperatura Precipitaciones Viento Presión Humedad
    00:00 +25°C° 0.5 mm 3 mps 668 mmHg 52%
    01:00 +24°C° 0.1 mm 2 mps 668 mmHg 53%
    02:00 +24°C° 0.1 mm 2 mps 668 mmHg 55%
    03:00 +24°C° 0.1 mm 2 mps 668 mmHg 56%
    04:00 +23°C° 0 mm 2 mps 668 mmHg 56%
    05:00 +23°C° 0 mm 1 mps 668 mmHg 57%
    06:00 +23°C° 0 mm 1 mps 668 mmHg 57%
    07:00 +24°C° 0 mm 1 mps 668 mmHg 54%
    08:00 +24°C° 0 mm 2 mps 669 mmHg 52%
    09:00 +25°C° 0 mm 2 mps 669 mmHg 49%
    10:00 +26°C° 0.1 mm 2 mps 669 mmHg 47%
    11:00 +27°C° 0.1 mm 2 mps 669 mmHg 44%
    12:00 +27°C° 0.1 mm 2 mps 668 mmHg 42%
    13:00 +28°C° 0.1 mm 2 mps 668 mmHg 40%
    14:00 +28°C° 0.1 mm 2 mps 668 mmHg 38%
    15:00 +28°C° 0.1 mm 2 mps 668 mmHg 36%
    16:00 +28°C° 0 mm 2 mps 667 mmHg 37%
    17:00 +28°C° 0 mm 1 mps 667 mmHg 37%
    18:00 +27°C° 0 mm 1 mps 667 mmHg 38%
    19:00 +27°C° 0 mm 1 mps 668 mmHg 39%
    20:00 +27°C° 0 mm 2 mps 668 mmHg 39%
    21:00 +27°C° 0 mm 2 mps 668 mmHg 40%
    22:00 +26°C° 0.1 mm 2 mps 668 mmHg 41%
    23:00 +26°C° 0.1 mm 2 mps 668 mmHg 41%

    22 Septiembre, Sábado

    Tiempo Temperatura Precipitaciones Viento Presión Humedad
    00:00 +26°C° 0.1 mm 1 mps 668 mmHg 42%
    01:00 +25°C° 0 mm 1 mps 668 mmHg 43%
    02:00 +25°C° 0 mm 1 mps 668 mmHg 44%
    03:00 +24°C° 0 mm 1 mps 668 mmHg 45%
    04:00 +24°C° 0 mm 1 mps 668 mmHg 45%
    05:00 +24°C° 0 mm 1 mps 668 mmHg 46%
    06:00 +24°C° 0 mm 1 mps 668 mmHg 46%
    07:00 +25°C° 0 mm 1 mps 669 mmHg 42%
    08:00 +26°C° 0 mm 2 mps 669 mmHg 39%
    09:00 +27°C° 0 mm 2 mps 669 mmHg 35%
    10:00 +27°C° 0.1 mm 2 mps 669 mmHg 34%
    11:00 +28°C° 0.1 mm 2 mps 669 mmHg 32%
    12:00 +29°C° 0.1 mm 2 mps 669 mmHg 30%
    13:00 +29°C° 0.2 mm 2 mps 668 mmHg 29%
    14:00 +29°C° 0.2 mm 2 mps 668 mmHg 28%
    15:00 +30°C° 0.2 mm 2 mps 668 mmHg 27%
    16:00 +29°C° 0.1 mm 2 mps 668 mmHg 28%
    17:00 +29°C° 0.1 mm 2 mps 668 mmHg 28%
    18:00 +28°C° 0.1 mm 2 mps 668 mmHg 29%
    19:00 +28°C° 0 mm 2 mps 668 mmHg 29%
    20:00 +28°C° 0 mm 2 mps 668 mmHg 30%
    21:00 +27°C° 0 mm 2 mps 668 mmHg 30%
    22:00 +27°C° 0.1 mm 2 mps 668 mmHg 31%
    23:00 +26°C° 0.1 mm 2 mps 668 mmHg 31%

    23 Septiembre, Domingo

    Tiempo Temperatura Precipitaciones Viento Presión Humedad
    00:00 +26°C° 0.1 mm 2 mps 668 mmHg 31%
    01:00 +26°C° 0.2 mm 2 mps 668 mmHg 32%
    02:00 +25°C° 0.2 mm 2 mps 668 mmHg 32%
    03:00 +25°C° 0.2 mm 2 mps 667 mmHg 33%
    04:00 +25°C° 0.2 mm 2 mps 668 mmHg 34%
    05:00 +25°C° 0.2 mm 2 mps 668 mmHg 34%
    06:00 +24°C° 0.2 mm 2 mps 668 mmHg 35%
    07:00 +25°C° 0.2 mm 2 mps 668 mmHg 33%
    08:00 +26°C° 0.2 mm 2 mps 668 mmHg 31%
    09:00 +27°C° 0.2 mm 3 mps 669 mmHg 29%
    10:00 +28°C° 0.2 mm 3 mps 668 mmHg 28%
    11:00 +29°C° 0.2 mm 3 mps 668 mmHg 27%
    12:00 +30°C° 0.2 mm 3 mps 668 mmHg 26%
    13:00 +30°C° 0.2 mm 3 mps 667 mmHg 25%
    14:00 +30°C° 0.2 mm 3 mps 667 mmHg 25%
    15:00 +30°C° 0.2 mm 2 mps 666 mmHg 24%
    16:00 +30°C° 0.2 mm 3 mps 666 mmHg 26%
    17:00 +29°C° 0.2 mm 3 mps 666 mmHg 28%
    18:00 +28°C° 0.2 mm 3 mps 666 mmHg 30%
    19:00 +28°C° 0.1 mm 2 mps 666 mmHg 31%
    20:00 +28°C° 0.1 mm 2 mps 666 mmHg 31%
    21:00 +27°C° 0.1 mm 2 mps 666 mmHg 32%
    22:00 +27°C° 0 mm 2 mps 666 mmHg 32%
    23:00 +26°C° 0 mm 2 mps 666 mmHg 32%

    24 Septiembre, Lunes

    Tiempo Temperatura Precipitaciones Viento Presión Humedad
    00:00 +26°C° 0 mm 2 mps 665 mmHg 32%
    01:00 +25°C° 0 mm 2 mps 665 mmHg 33%
    02:00 +25°C° 0 mm 2 mps 665 mmHg 34%
    03:00 +25°C° 0 mm 2 mps 665 mmHg 34%
    04:00 +24°C° 0 mm 1 mps 665 mmHg 36%
    05:00 +24°C° 0 mm 1 mps 665 mmHg 37%
    06:00 +24°C° 0 mm 1 mps 665 mmHg 38%
    07:00 +25°C° 0 mm 1 mps 665 mmHg 34%
    08:00 +26°C° 0 mm 1 mps 666 mmHg 31%
    09:00 +28°C° 0 mm 2 mps 666 mmHg 27%
    10:00 +28°C° 0 mm 2 mps 666 mmHg 25%
    11:00 +29°C° 0 mm 2 mps 666 mmHg 24%
    12:00 +30°C° 0 mm 2 mps 666 mmHg 22%
    13:00 +30°C° 0 mm 2 mps 666 mmHg 22%
    14:00 +30°C° 0 mm 2 mps 665 mmHg 21%
    15:00 +30°C° 0 mm 1 mps 665 mmHg 21%
    16:00 +30°C° 0 mm 1 mps 665 mmHg 22%
    17:00 +29°C° 0 mm 1 mps 665 mmHg 24%
    18:00 +29°C° 0 mm 1 mps 665 mmHg 25%
    19:00 +28°C° 0 mm 1 mps 665 mmHg 27%
    20:00 +28°C° 0 mm 1 mps 666 mmHg 29%
    21:00 +27°C° 0 mm 1 mps 666 mmHg 30%
    22:00 +27°C° 0 mm 1 mps 666 mmHg 32%
    23:00 +26°C° 0 mm 2 mps 666 mmHg 33%
    Mostrar más